Regional Weather Roundup
Issued by NWS

Home | Current Version | Previous Version | Graphics & Text | Print | Product List | Glossary On
Versions: 1 2 3 4 5 6 7 8 9 10 11 12 13 14 15 16 17 18 19 20 21 22 23 24 25 26 27 28
000
ASUS45 KCYS 241010
RWRWY

WYOMING REGIONAL WEATHER ROUNDUP
NATIONAL WEATHER SERVICE CHEYENNE WY
400 AM MDT FRI OCT 24 2014

NOTE:  "FAIR" INDICATES FEW OR NO CLOUDS BELOW 12,000 FEET
WITH NO SIGNIFICANT WEATHER AND/OR OBSTRUCTIONS TO VISIBILITY.

WYZ001-241100-
YELLOWSTONE NATIONAL PARK

CITY           SKY/WX    TMP DP  RH WIND       PRES   REMARKS
LK YELLOWSTONE   N/A     43  30  60 VRB5      30.19
W YELLOWSTONE  NOT AVBL

$$
WYZ002>013-054>058-071-098>099-241100-
NORTHERN WYOMING

CITY           SKY/WX    TMP DP  RH WIND       PRES   REMARKS
JACKSON        CLOUDY    48  28  46 S9        30.16F
CODY           CLOUDY    61  28  29 W8G17     29.99
GREYBULL       CLOUDY    41  28  60 NE5       29.97S
WORLAND        CLOUDY    40  27  59 E6        29.97S
SHERIDAN       CLOUDY    43  29  57 CALM      29.93R
BUFFALO        CLOUDY    54  24  31 W7        29.98S
GILLETTE       CLOUDY    56  25  30 SW10      29.95R
HULETT         FAIR      52  30  43 SW10      29.95
NEWCASTLE      FAIR      45  28  53 CALM      29.98

$$
WYZ014>020-022>026-101>103-241100-
CENTRAL WYOMING

CITY           SKY/WX    TMP DP  RH WIND       PRES   REMARKS
BIG PINEY      CLOUDY    33  26  75 CALM      30.21S
PINEDALE       CLOUDY    32  30  93 W7        30.21  WCI  26
DUBOIS         FAIR      46  21  36 NW20G26   30.12S
LANDER         CLOUDY    47  25  42 SE3       30.04S
RIVERTON       CLOUDY    45  23  42 NE5       30.06F
CASPER         CLOUDY    52  28  39 SW16      30.05F
DOUGLAS        CLOUDY    47  27  45 CALM      30.04F

$$
WYZ021-027>030-104>119-241100-
SOUTHERN WYOMING

CITY           SKY/WX    TMP DP  RH WIND       PRES   REMARKS
EVANSTON       CLEAR     47  23  38 SW14      30.21S
KEMMERER       PTSUNNY   41  27  56 CALM      30.22F
FORT BRIDGER   FAIR      47  24  39 SW9       30.24S
ROCK SPRINGS   MOCLDY    43  28  55 CALM      30.20S
DIXON          FAIR      43  33  68 CALM      30.26F
RAWLINS        CLOUDY    52  29  41 SW14      30.19F
SARATOGA       FAIR      50  28  43 SW10      30.23S
LARAMIE        MOCLDY    51  25  36 SW8       30.21F
CHEYENNE         N/A     52  27  38 W6        30.15F
TORRINGTON     CLOUDY    58  32  37 SW6       30.00S
PINE BLUFFS    FAIR      50  36  57 SW8       30.10F

$$



USA.gov is the U.S. government's official web portal to all federal, state and local government web resources and services.